FW3232 Weather Reports


Display with metric or nautical units.
time (UTC)temp
F
wind
direction
speed
MPH
gust
MPH
rain 1hr
in
rain 24hr
in
rain mn
in
humidity
%
barometer
mb
20260504130412 67 340 3.0 9.0 0.00 0.00 0.00 56 1010.3
20260504110411 63 289 2.0 8.0 0.00 0.00 0.00 59 1010.1
20260504100412 64 324 5.0 9.0 0.00 0.00 0.00 57 1010.5
20260504081914 63 13 2.0 4.0 0.00 0.00 0.00 61 1010.8
20260504081413 63 102 1.0 3.0 0.00 0.00 0.00 63 1010.9
20260504080913 64 49 1.0 3.0 0.00 0.00 0.00 60 1010.9
20260504080411 65 128 2.0 3.0 0.00 0.00 0.00 58 1011.0
20260504050412 63 268 2.0 5.0 0.00 0.00 0.00 65 1012.3
20260504045911 63 317 1.0 4.0 0.00 0.00 0.00 64 1012.4
20260504045411 64 303 1.0 4.0 0.00 0.00 0.00 65 1012.4
20260504044911 64 310 1.0 4.0 0.00 0.00 0.00 65 1012.4
20260504044411 65 79 0.0 5.0 0.00 0.00 0.00 64 1012.3
20260504043911 65 314 2.0 5.0 0.00 0.00 0.00 58 1012.3
20260504043413 64 54 2.0 4.0 0.00 0.00 0.00 62 1012.3
20260504042912 64 347 2.0 4.0 0.00 0.00 0.00 62 1012.2
20260504042411 63 90 1.0 6.0 0.00 0.00 0.00 61 1012.2
20260504041913 62 123 2.0 5.0 0.00 0.00 0.00 67 1012.3
20260504041412 60 131 1.0 4.0 0.00 0.00 0.00 70 1012.3
20260504040911 58 325 2.0 4.0 0.00 0.00 0.00 74 1012.3
20260504040411 57 135 1.0 3.0 0.00 0.00 0.00 80 1012.4
20260504035911 57 96 1.0 3.0 0.00 0.00 0.00 80 1012.4
20260504035413 57 135 1.0 3.0 0.00 0.00 0.00 81 1012.5
20260504034913 57 175 0.0 5.0 0.00 0.00 0.00 80 1012.5
20260504034412 57 34 0.0 2.0 0.00 0.00 0.00 79 1012.6
20260504033912 57 349 1.0 2.0 0.00 0.00 0.00 80 1012.6
20260504033412 57 336 1.0 2.0 0.00 0.00 0.00 80 1012.6
20260504032911 57 0 0.0 2.0 0.00 0.00 0.00 78 1012.6
20260504032411 57 330 1.0 2.0 0.00 0.00 0.00 79 1012.7
20260504031912 57 323 0.0 2.0 0.00 0.00 0.00 79 1012.7
20260504031411 58 332 1.0 2.0 0.00 0.00 0.00 79 1012.6
20260504030913 58 0 0.0 2.0 0.00 0.00 0.00 78 1012.6
20260504030412 58 291 0.0 2.0 0.00 0.00 0.00 78 1012.6
20260504025911 58 337 1.0 2.0 0.00 0.00 0.00 77 1012.6
20260504025411 59 349 1.0 2.0 0.00 0.00 0.00 77 1012.6
20260504024912 59 339 1.0 2.0 0.00 0.00 0.00 77 1012.6
20260504024411 59 340 2.0 2.0 0.00 0.00 0.00 76 1012.6
20260504023912 59 339 1.0 4.0 0.00 0.00 0.00 77 1012.5
20260504023411 60 339 2.0 2.0 0.00 0.00 0.00 76 1012.5
20260504022912 60 339 1.0 3.0 0.00 0.00 0.00 75 1012.4
20260504022411 60 337 1.0 3.0 0.00 0.00 0.00 75 1012.4
20260504021911 60 340 0.0 4.0 0.00 0.00 0.00 74 1012.4
20260504021411 60 339 2.0 2.0 0.00 0.00 0.00 75 1012.4
20260504020911 61 343 2.0 2.0 0.00 0.00 0.00 73 1012.4
20260504020412 61 346 2.0 2.0 0.00 0.00 0.00 73 1012.5
20260504015912 61 330 1.0 2.0 0.00 0.00 0.00 71 1012.4
20260504015411 62 329 1.0 2.0 0.00 0.00 0.00 70 1012.4
20260504014911 62 339 2.0 3.0 0.00 0.00 0.00 71 1012.4
20260504014411 62 348 2.0 3.0 0.00 0.00 0.00 71 1012.4
20260504013912 62 352 2.0 3.0 0.00 0.00 0.00 69 1012.4
20260504013411 63 347 1.0 3.0 0.00 0.00 0.00 69 1012.4
20260504012911 64 352 2.0 2.0 0.00 0.00 0.00 69 1012.4
20260504012411 64 0 0.0 2.0 0.00 0.00 0.00 65 1012.4
20260504011911 65 0 0.0 2.0 0.00 0.00 0.00 64 1012.4
20260504011412 65 344 0.0 2.0 0.00 0.00 0.00 64 1012.4
20260504010911 66 348 1.0 2.0 0.00 0.00 0.00 64 1012.3
20260504010411 67 336 1.0 2.0 0.00 0.00 0.00 61 1012.3
20260504005911 68 344 1.0 2.0 0.00 0.00 0.00 59 1012.2
20260504005412 68 336 1.0 2.0 0.00 0.00 0.00 57 1012.2
20260504004911 69 328 1.0 2.0 0.00 0.00 0.00 56 1012.2
20260504004411 70 0 0.0 1.0 0.00 0.00 0.00 56 1012.3
20260504003911 71 0 0.0 1.0 0.00 0.00 0.00 53 1012.3
20260504003412 72 346 0.0 2.0 0.00 0.00 0.00 54 1012.3
20260504002912 73 317 0.0 2.0 0.00 0.00 0.00 51 1012.3
20260504002412 74 343 0.0 2.0 0.00 0.00 0.00 50 1012.4
20260504001912 75 1 0.0 2.0 0.00 0.00 0.00 46 1012.4
20260504001411 75 29 1.0 3.0 0.00 0.00 0.00 46 1012.4
20260504000912 76 132 1.0 3.0 0.00 0.00 0.00 47 1012.3
20260504000411 76 129 0.0 3.0 0.00 0.00 0.00 44 1012.4
20260503235911 77 121 2.0 5.0 0.00 0.00 0.00 44 1012.4
20260503235411 77 342 2.0 4.0 0.00 0.00 0.00 43 1012.4
20260503234911 77 187 2.0 6.0 0.00 0.00 0.00 43 1012.5
20260503234411 78 48 2.0 5.0 0.00 0.00 0.00 43 1012.6
20260503233911 79 275 1.0 5.0 0.00 0.00 0.00 41 1012.7
20260503233411 80 143 2.0 7.0 0.00 0.00 0.00 40 1012.6
20260503232912 80 59 1.0 5.0 0.00 0.00 0.00 38 1012.6
20260503232411 80 276 2.0 6.0 0.00 0.00 0.00 38 1012.6
20260503231911 80 311 2.0 8.0 0.00 0.00 0.00 36 1012.6
20260503231411 80 251 2.0 10.0 0.00 0.00 0.00 35 1012.7
20260503230912 80 325 3.0 9.0 0.00 0.00 0.00 35 1012.7
20260503230411 80 351 3.0 8.0 0.00 0.00 0.00 35 1012.7
20260503225911 81 303 3.0 8.0 0.00 0.00 0.00 34 1012.7
20260503225412 80 351 1.0 10.0 0.00 0.00 0.00 35 1012.7
20260503224913 80 311 2.0 8.0 0.00 0.00 0.00 34 1012.8
20260503224411 80 342 2.0 10.0 0.00 0.00 0.00 34 1012.8
20260503223911 80 341 4.0 11.0 0.00 0.00 0.00 33 1012.7
20260503223411 80 305 4.0 9.0 0.00 0.00 0.00 34 1012.8
20260503222912 81 316 6.0 9.0 0.00 0.00 0.00 33 1012.8
20260503222411 81 349 4.0 9.0 0.00 0.00 0.00 33 1012.8
20260503221911 81 324 4.0 9.0 0.00 0.00 0.00 32 1012.8
20260503221411 81 324 3.0 11.0 0.00 0.00 0.00 33 1012.9
20260503220911 81 282 5.0 13.0 0.00 0.00 0.00 31 1012.9
20260503220411 81 312 5.0 10.0 0.00 0.00 0.00 32 1013.1
20260503215912 81 306 5.0 11.0 0.00 0.00 0.00 31 1013.2
20260503215411 82 315 8.0 11.0 0.00 0.00 0.00 33 1013.2
20260503214911 82 222 4.0 13.0 0.00 0.00 0.00 31 1013.1
20260503214412 82 330 7.0 13.0 0.00 0.00 0.00 33 1013.3
20260503213911 82 330 4.0 8.0 0.00 0.00 0.00 33 1013.2
20260503213412 81 329 2.0 9.0 0.00 0.00 0.00 36 1013.3
20260503212911 80 311 4.0 9.0 0.00 0.00 0.00 37 1013.4
20260503212411 80 131 4.0 8.0 0.00 0.00 0.00 38 1013.4
20260503211912 81 186 3.0 10.0 0.00 0.00 0.00 38 1013.5
20260503211412 82 175 3.0 7.0 0.00 0.00 0.00 36 1013.6
20260503210911 82 128 4.0 8.0 0.00 0.00 0.00 36 1013.7
20260503210411 82 157 2.0 7.0 0.00 0.00 0.00 37 1013.8
20260503205911 82 44 3.0 7.0 0.00 0.00 0.00 36 1013.8
20260503205411 82 170 3.0 9.0 0.00 0.00 0.00 35 1014.0
20260503204912 82 330 4.0 13.0 0.00 0.00 0.00 32 1014.1
20260503204411 83 353 3.0 9.0 0.00 0.00 0.00 32 1014.1
20260503203911 83 236 3.0 7.0 0.00 0.00 0.00 35 1014.1
20260503203411 83 98 2.0 8.0 0.00 0.00 0.00 34 1014.2
20260503202911 82 310 3.0 9.0 0.00 0.00 0.00 35 1014.3
20260503202411 83 300 3.0 7.0 0.00 0.00 0.00 32 1014.3
20260503201911 82 0 4.0 10.0 0.00 0.00 0.00 37 1014.3
20260503201412 82 172 6.0 10.0 0.00 0.00 0.00 37 1014.5
20260503200911 82 120 4.0 8.0 0.00 0.00 0.00 36 1014.6
20260503200411 82 291 4.0 10.0 0.00 0.00 0.00 35 1014.6
20260503195911 82 332 6.0 10.0 0.00 0.00 0.00 33 1014.6
20260503195413 81 291 2.0 8.0 0.00 0.00 0.00 35 1014.8
20260503194911 82 147 4.0 9.0 0.00 0.00 0.00 36 1014.8
20260503194411 81 244 4.0 11.0 0.00 0.00 0.00 34 1015.1
20260503193911 81 299 6.0 10.0 0.00 0.00 0.00 34 1015.1
20260503193411 81 294 8.0 9.0 0.00 0.00 0.00 36 1015.1
20260503192912 81 144 1.0 8.0 0.00 0.00 0.00 36 1015.2
20260503192413 81 308 5.0 10.0 0.00 0.00 0.00 35 1015.3
20260503191912 82 103 3.0 9.0 0.00 0.00 0.00 34 1015.3
20260503191413 81 280 4.0 9.0 0.00 0.00 0.00 35 1015.3
20260503190911 81 158 5.0 8.0 0.00 0.00 0.00 38 1015.4
20260503190412 81 309 5.0 9.0 0.00 0.00 0.00 37 1015.6
20260503185913 82 288 4.0 7.0 0.00 0.00 0.00 36 1015.5
20260503185411 82 319 2.0 9.0 0.00 0.00 0.00 36 1015.6
20260503184911 81 15 2.0 8.0 0.00 0.00 0.00 37 1015.6
20260503184411 80 96 3.0 12.0 0.00 0.00 0.00 38 1015.7
20260503183911 80 325 7.0 12.0 0.00 0.00 0.00 38 1015.8
20260503183411 80 253 4.0 12.0 0.00 0.00 0.00 37 1015.9
20260503182912 79 141 4.0 7.0 0.00 0.00 0.00 38 1016.0
20260503182411 79 168 4.0 9.0 0.00 0.00 0.00 38 1016.0
20260503181912 78 125 3.0 11.0 0.00 0.00 0.00 40 1016.1
20260503181411 78 195 4.0 9.0 0.00 0.00 0.00 41 1016.3
20260503180912 79 263 4.0 8.0 0.00 0.00 0.00 39 1016.4
20260503180411 78 199 1.0 8.0 0.00 0.00 0.00 39 1016.4
20260503175913 78 258 4.0 14.0 0.00 0.00 0.00 39 1016.6
20260503175412 77 308 6.0 14.0 0.00 0.00 0.00 41 1016.6
20260503174911 78 234 5.0 8.0 0.00 0.00 0.00 39 1016.6
20260503174413 77 290 3.0 10.0 0.00 0.00 0.00 40 1016.7
20260503173912 77 268 4.0 10.0 0.00 0.00 0.00 40 1016.8
20260503173412 77 231 3.0 10.0 0.00 0.00 0.00 42 1016.9
20260503172911 77 332 4.0 10.0 0.00 0.00 0.00 39 1017.0
20260503172413 77 120 4.0 8.0 0.00 0.00 0.00 40 1017.0
20260503171912 77 225 2.0 8.0 0.00 0.00 0.00 39 1017.1
20260503171411 76 46 4.0 8.0 0.00 0.00 0.00 40 1017.1
20260503170911 76 168 5.0 9.0 0.00 0.00 0.00 40 1017.1
20260503170412 74 128 4.0 9.0 0.00 0.00 0.00 42 1017.1
20260503150912 65 249 3.0 7.0 0.00 0.00 0.00 49 1018.5
20260503150413 64 192 3.0 9.0 0.00 0.00 0.00 52 1018.6